Location: College Park
(38.9810°N, 76.9370°W)
Time: 18:17:27
(UTC-05:00)

Vanguard 3 - All Passes

Search period start: 21 November 2017 00:00
Search period end: 01 December 2017 00:00
Orbit: 509 x 3263 km, 33.4° (Epoch: 21 November)

Date Brightness Start Highest point End Pass type
(mag) Time Alt. Az. Time Alt. Az. Time Alt. Az.
21 Nov - 00:27:48 10° W 00:43:41 49° SSW 01:02:05 10° SE visible
21 Nov - 02:45:20 10° W 02:58:20 23° SW 03:11:05 10° S visible
21 Nov - 16:42:01 10° S 16:46:48 18° SE 16:53:21 10° E daylight
21 Nov - 18:49:36 10° SW 18:57:52 53° SSE 19:12:16 10° E visible
21 Nov - 21:00:26 10° W 21:11:47 71° S 21:30:17 10° E visible
21 Nov - 23:12:54 10° W 23:27:24 59° SSW 23:46:44 10° SE visible
22 Nov - 01:27:48 10° W 01:42:47 34° SW 01:58:54 10° SSE visible
22 Nov - 17:37:25 10° SSW 17:43:57 36° SE 17:54:48 10° E visible
22 Nov - 19:47:07 10° WSW 19:56:27 66° S 20:12:49 10° E visible
22 Nov - 21:58:41 10° W 22:11:15 66° S 22:30:21 10° ESE visible
23 Nov - 00:12:00 10° W 00:26:50 45° SSW 00:44:55 10° SE visible
23 Nov - 02:30:02 10° W 02:41:27 19° SW 02:53:05 10° S visible
23 Nov - 16:26:17 10° S 16:30:49 20° SE 16:37:08 10° E daylight
23 Nov - 18:34:16 10° SW 18:41:52 55° SSE 18:55:22 10° E visible
23 Nov - 20:45:01 10° W 20:55:31 69° S 21:13:14 10° ESE visible
23 Nov - 22:57:15 10° W 23:10:44 55° SSW 23:29:34 10° SE visible
24 Nov - 01:12:09 10° W 01:25:54 30° SW 01:41:22 10° SSE visible
24 Nov - 17:22:00 10° SW 17:28:03 38° SSE 17:38:09 10° E visible
24 Nov - 19:31:47 10° WSW 19:40:25 66° S 19:55:49 10° E visible
24 Nov - 21:43:12 10° W 21:54:50 62° SSW 22:13:12 10° ESE visible
24 Nov - 23:56:22 10° W 00:10:03 40° SSW 00:27:31 10° SSE visible
25 Nov - 02:15:19 10° WSW 02:24:39 16° SW 02:34:24 10° SSW visible
25 Nov - 16:10:40 10° S 16:14:56 21° SE 16:20:57 10° E daylight
25 Nov - 18:19:00 10° WSW 18:25:59 56° SSE 18:38:31 10° E visible
25 Nov - 20:29:41 10° W 20:39:22 66° S 20:56:08 10° ESE visible
25 Nov - 22:41:43 10° W 22:54:10 50° SSW 23:12:15 10° SE visible
26 Nov - 00:56:48 10° W 01:09:08 26° SW 01:23:27 10° S visible
26 Nov - 17:06:42 10° SW 17:12:16 39° SSE 17:21:35 10° E visible
26 Nov - 19:16:33 10° WSW 19:24:29 65° S 19:38:50 10° E visible
26 Nov - 21:27:49 10° W 21:38:31 58° SSW 21:55:57 10° ESE visible
26 Nov - 23:40:55 10° W 23:53:25 35° SSW 00:09:51 10° SSE night (unlit)
27 Nov - 02:01:46 10° WSW 02:07:58 12° SW 02:14:29 10° SSW visible
27 Nov - 15:55:08 10° SSW 15:59:09 22° SE 16:04:50 10° E daylight
27 Nov - 18:03:48 10° WSW 18:10:13 57° SSE 18:21:45 10° E visible
27 Nov - 20:14:24 10° W 20:23:19 63° S 20:39:01 10° ESE visible
27 Nov - 22:26:19 10° W 22:37:44 44° SSW 22:54:45 10° SE visible
28 Nov - 00:41:48 10° W 00:52:29 21° SW 01:05:06 10° S visible
28 Nov - 16:51:26 10° SW 16:56:33 41° SSE 17:05:06 10° E daylight
28 Nov - 19:01:21 10° WSW 19:08:39 64° S 19:21:53 10° ESE visible
28 Nov - 21:12:30 10° W 21:22:19 53° SSW 21:38:36 10° SE visible
28 Nov - 23:25:40 10° W 23:36:54 30° SSW 23:51:56 10° SSE visible
29 Nov - 15:39:40 10° SSW 15:43:27 23° SE 15:48:48 10° E daylight
29 Nov - 17:48:38 10° WSW 17:54:32 57° S 18:05:03 10° E visible
29 Nov - 19:59:11 10° W 20:07:21 59° S 20:21:52 10° ESE visible
29 Nov - 22:11:03 10° W 22:21:25 39° SSW 22:37:04 10° SE visible
30 Nov - 00:27:20 10° WSW 00:35:59 17° SW 00:46:09 10° S night (unlit)
30 Nov - 16:36:13 10° SW 16:40:57 42° SSE 16:48:43 10° E daylight
30 Nov - 18:46:13 10° W 18:52:54 61° S 19:05:01 10° ESE visible
30 Nov - 20:57:17 10° W 21:06:14 47° SSW 21:21:11 10° SE visible
30 Nov - 23:10:41 10° W 23:20:31 25° SSW 23:33:41 10° SSE visible
